Wind_Speed
13 11 12 10 9 8 7 7 6 6 4 2 1 1 3 3 4 6 7 9 10 10 10 9 9 9 10 10 10 11 11 12 12 13 14 15 15 16 16 16 17 17 19
13 12 13 12 10 9 9 8 8 7 4 3 2 2 3 4 6 8 9 9 10 10 10 11 11 11 10 10 11 11 12 12 13 14 15 15 16 17 17 18 18 18 19
14 13 12 13 12 10 10 9 8 6 4 3 4 3 3 5 7 9 9 10 10 11 11 12 12 12 11 11 11 12 13 14 15 15 15 17 17 18 17 18 19 19 18
14 13 13 13 12 10 8 8 7 4 4 4 5 5 6 7 8 10 11 11 11 12 11 12 12 13 13 13 14 15 15 16 16 17 17 18 19 19 20 20 20 20 20
15 13 13 13 13 9 7 7 6 5 5 5 6 7 7 8 10 11 11 12 12 12 12 12 12 12 12 14 14 15 17 17 18 19 19 19 19 20 21 21 22 22 22
17 15 14 14 14 10 8 8 7 6 6 6 7 8 8 10 11 13 13 13 13 13 13 13 13 13 14 14 15 16 17 18 18 18 19 20 20 21 22 22 23 24 23
19 17 15 14 15 12 10 9 7 7 7 8 9 10 11 12 13 14 14 14 14 14 14 14 14 15 15 15 16 17 18 19 20 21 22 23 23 23 24 24 24 25 25
22 19 18 17 16 14 12 10 8 7 8 10 12 13 14 15 14 15 14 15 15 15 14 14 14 15 16 16 17 18 19 21 22 23 23 24 25 26 26 26 25 26 26
25 22 20 19 17 15 14 12 10 8 8 9 11 14 16 17 17 17 15 15 14 15 14 14 15 16 17 18 19 20 21 22 23 24 25 25 26 27 27 27 26 26 27
26 23 21 20 18 17 15 14 12 11 10 10 11 13 15 17 18 18 17 17 16 15 15 15 16 17 18 20 21 22 23 23 24 25 26 26 28 29 29 29 28 28 28
27 24 22 21 21 18 17 16 15 13 13 12 13 14 15 16 18 18 17 17 17 17 17 16 17 17 18 19 21 22 23 24 25 26 27 26 28 28 28 30 30 30 30
28 26 23 23 22 21 19 17 16 15 15 14 15 16 17 18 18 17 17 17 17 17 17 17 17 19 20 20 22 24 25 26 27 28 29 28 29 29 29 29 30 31 31
30 29 26 24 23 22 20 18 17 17 17 17 17 17 19 19 19 19 19 20 19 19 19 19 19 21 22 23 23 24 26 27 28 29 31 31 32 31 31 32 32 33 33
34 29 27 27 24 22 21 20 20 19 19 19 19 20 21 21 21 21 21 21 20 20 20 20 21 23 23 24 25 27 28 29 31 33 33 33 34 35 35 34 34 34 35
33 31 30 28 26 25 24 23 23 22 22 22 22 21 22 23 23 22 22 22 22 22 22 22 23 24 25 26 29 30 31 32 34 36 36 37 38 38 37 36 36 36 37
36 35 34 31 29 28 27 26 26 26 26 25 23 23 24 25 25 24 24 24 24 24 24 25 25 26 28 29 32 32 33 35 38 39 39 39 40 37 37 38 37 37 37
40 39 38 35 32 32 30 29 30 28 27 26 26 26 27 27 26 25 26 26 27 26 26 27 28 29 32 33 34 35 37 39 41 41 41 41 40 39 39 41 41 41 41
41 40 39 38 37 34 33 32 31 29 29 30 30 30 30 29 27 26 27 29 29 29 29 30 31 34 35 36 37 38 40 42 44 43 42 42 42 42 42 43 42 43 43
46 42 41 41 39 37 36 35 32 32 34 34 33 32 32 29 29 29 29 30 31 32 32 34 35 37 38 38 38 40 42 44 45 44 43 44 44 44 43 43 43 44 44
44 44 42 43 42 42 40 38 36 37 36 36 35 34 34 33 32 31 31 32 33 35 35 37 38 39 39 39 39 41 45 46 45 43 43 43 42 42 43 44 44 43 43
45 44 40 43 45 44 42 40 39 40 39 39 38 38 37 35 35 34 34 35 36 37 38 40 41 41 39 40 41 45 46 45 44 44 44 43 42 42 42 41 43 44 44
51 48 46 47 48 47 45 44 43 42 41 40 40 40 39 38 38 37 37 38 39 40 41 42 44 42 40 43 46 48 47 44 43 43 44 43 43 41 40 41 41 40 43
56 57 53 50 45 48 47 46 45 44 43 42 41 41 40 40 40 40 40 42 42 43 43 44 44 41 42 45 49 50 48 44 42 42 41 40 39 38 40 39 42 44 45
51 50 50 48 54 53 48 47 46 45 44 43 43 42 42 43 44 44 44 44 44 44 44 43 41 41 45 47 49 47 45 44 44 44 41 38 37 38 39 41 43 44 46
52 50 49 49 50 52 53 53 50 49 46 45 44 44 45 45 45 44 44 44 45 46 44 41 42 45 48 49 48 45 45 44 44 42 38 37 37 40 41 43 44 44 44
44 45 46 47 45 45 47 49 50 51 49 48 45 44 44 45 45 44 45 46 47 44 42 43 45 48 49 50 46 44 44 44 41 39 39 37 38 40 43 44 44 43 44
Wind_Direction
228 231 238 241 236 241 253 261 269 275 268 251 210 38 40 33 17 357 359 354 347 339 332 330 330 329 326 322 320 323 321 318 320 321 321 321 319 317 314 314 313 311 311
231 232 237 246 249 255 265 266 272 272 266 272 310 344 6 4 359 356 358 350 339 333 331 325 324 323 323 321 322 323 320 319 319 320 322 321 320 320 317 315 315 313 312
235 238 243 250 262 264 273 269 266 263 271 301 299 326 336 345 349 346 343 337 330 328 330 327 324 323 321 317 315 315 317 317 315 316 318 321 322 322 320 318 317 312 308
237 242 246 258 270 262 260 262 258 256 275 285 295 306 328 335 336 336 338 331 326 327 327 325 324 321 320 318 317 319 318 319 319 321 321 323 322 322 322 319 318 314 310
231 237 251 263 265 252 236 231 236 242 261 280 290 302 320 329 334 336 335 331 328 325 322 318 316 318 320 318 320 321 322 322 322 321 320 319 319 322 320 317 315 312 311
227 231 245 255 254 241 239 227 226 241 267 282 294 302 319 327 332 333 328 327 324 319 317 316 318 317 316 317 319 320 322 321 319 315 315 314 318 318 316 317 317 317 314
226 227 239 236 237 230 230 241 247 259 272 285 295 305 317 325 329 326 324 322 319 316 314 319 317 317 318 319 319 319 321 319 320 318 317 317 317 316 316 315 316 316 314
225 225 230 224 224 224 229 232 248 269 284 297 302 308 316 320 322 318 318 317 318 314 315 317 315 316 316 317 315 316 320 322 322 319 317 317 316 314 314 316 317 316 314
228 223 221 222 218 221 226 231 237 254 271 285 295 303 308 310 312 312 310 311 310 313 316 318 316 316 315 315 315 317 319 319 318 316 316 315 314 314 316 317 318 315 313
234 226 221 221 219 221 226 234 243 250 264 273 277 283 290 297 304 303 305 308 311 315 316 316 314 314 314 314 316 318 319 319 317 317 316 316 316 315 316 317 317 314 311
234 231 226 224 221 222 228 237 248 257 266 271 278 282 286 293 296 297 302 305 311 313 311 309 307 306 307 308 312 315 315 316 317 317 317 316 314 313 313 312 310 309 308
229 227 222 223 224 225 229 237 248 260 268 275 281 283 287 290 292 296 298 302 305 304 303 302 303 306 306 310 312 313 315 316 315 314 314 313 310 309 308 305 304 304 303
221 226 224 224 229 235 238 244 253 260 266 273 277 282 285 289 295 296 299 300 302 301 302 304 305 303 306 311 310 312 312 311 311 312 311 311 309 307 306 304 304 303 301
226 225 229 230 229 236 245 251 255 260 267 273 277 281 285 291 294 295 296 298 298 299 301 302 302 303 307 308 309 309 310 309 310 310 309 310 308 306 304 303 302 301 301
225 227 225 227 231 234 243 250 257 263 267 270 273 277 281 286 289 291 294 296 295 297 297 297 298 302 305 306 308 307 307 309 309 310 311 310 307 305 304 303 303 302 303
222 226 228 228 230 236 243 250 256 261 265 267 270 273 276 280 284 288 289 289 292 295 296 297 298 301 302 305 304 304 306 309 309 309 310 308 305 303 303 302 302 303 304
222 223 228 232 234 237 242 247 253 258 263 267 268 270 273 277 279 284 286 287 290 294 296 295 296 299 300 302 303 305 307 309 309 309 309 305 303 301 301 302 302 301 301
230 226 229 233 236 238 244 249 252 256 263 266 267 268 271 275 280 281 282 286 291 292 294 294 295 296 298 300 302 304 307 308 308 308 306 303 303 303 304 304 303 302 301
237 226 232 235 239 243 246 248 253 258 261 264 267 269 272 275 276 278 282 287 289 291 293 293 293 294 295 297 299 303 305 306 306 305 304 304 306 305 304 304 303 302 302
243 241 231 236 239 241 244 248 252 256 260 264 268 269 272 275 277 280 282 283 286 289 292 294 293 292 293 295 298 302 303 304 304 303 302 302 302 301 302 302 303 302 301
245 245 240 241 244 245 246 249 251 255 259 263 266 270 274 276 277 279 280 282 285 288 290 291 292 293 292 294 298 300 303 304 303 303 303 303 302 301 301 302 302 301 300
241 241 245 245 247 248 250 251 254 255 259 262 266 269 272 273 275 277 278 281 284 286 288 290 291 292 292 296 300 301 303 302 302 302 302 301 300 301 301 302 300 300 300
241 242 242 241 247 250 252 252 254 256 259 262 265 267 269 271 274 276 278 280 283 286 289 290 290 291 292 297 297 301 301 300 298 298 299 299 298 298 299 299 298 299 300
238 242 246 250 249 244 247 250 252 254 257 259 261 263 266 268 270 273 275 279 282 285 286 287 286 291 295 297 298 299 300 299 299 298 300 298 295 296 296 297 299 299 300
246 249 251 249 247 249 248 248 251 252 254 256 258 261 263 266 269 274 278 281 284 286 286 286 289 294 295 298 298 298 296 297 298 300 301 296 296 294 296 298 299 298 300
242 245 248 248 247 249 251 253 253 254 257 260 264 266 269 272 275 277 280 283 285 285 287 290 292 294 297 297 296 294 294 297 298 300 300 296 296 296 298 299 300 300 304
Height
5904 5906 5909 5910 5911 5912 5913 5914 5915 5915 5915 5915 5916 5915 5915 5916 5916 5916 5915 5914 5914 5914 5913 5913 5912 5911 5910 5910 5908 5907 5906 5905 5904 5903 5902 5900 5900 5898 5897 5895 5893 5891 5890
5904 5905 5907 5909 5910 5910 5912 5913 5914 5914 5915 5915 5915 5915 5915 5915 5915 5915 5914 5913 5913 5913 5913 5912 5912 5911 5910 5908 5907 5906 5905 5903 5902 5901 5899 5898 5897 5896 5894 5892 5891 5889 5887
5902 5903 5905 5907 5908 5909 5910 5912 5913 5914 5914 5914 5915 5915 5914 5914 5914 5913 5912 5912 5912 5911 5911 5910 5909 5908 5908 5907 5906 5905 5903 5902 5901 5899 5898 5896 5895 5893 5891 5889 5888 5886 5884
5900 5901 5903 5906 5906 5907 5908 5910 5912 5912 5913 5914 5914 5914 5913 5912 5912 5912 5911 5911 5911 5910 5909 5908 5907 5906 5905 5905 5904 5903 5901 5900 5898 5897 5895 5894 5893 5891 5889 5887 5885 5883 5881
5897 5900 5902 5904 5905 5905 5907 5909 5910 5911 5912 5913 5913 5913 5912 5911 5910 5910 5909 5909 5909 5909 5908 5906 5905 5904 5904 5903 5902 5900 5899 5898 5896 5895 5893 5891 5890 5888 5886 5885 5883 5880 5879
5895 5897 5900 5902 5903 5903 5905 5907 5909 5909 5910 5911 5911 5911 5910 5909 5909 5908 5908 5908 5907 5906 5905 5904 5903 5902 5902 5901 5900 5898 5897 5896 5894 5892 5891 5889 5887 5885 5884 5882 5880 5878 5876
5894 5894 5896 5899 5901 5902 5903 5905 5906 5907 5908 5909 5909 5909 5908 5908 5907 5907 5907 5906 5905 5904 5903 5902 5901 5900 5900 5899 5897 5896 5894 5893 5891 5889 5887 5885 5883 5882 5880 5879 5877 5875 5873
5890 5891 5893 5896 5899 5900 5902 5903 5903 5905 5905 5906 5906 5906 5906 5905 5905 5906 5905 5904 5903 5902 5901 5900 5899 5898 5897 5896 5895 5893 5891 5889 5888 5886 5884 5883 5881 5879 5877 5876 5874 5872 5870
5885 5887 5889 5892 5895 5897 5899 5901 5902 5903 5904 5904 5904 5903 5903 5903 5903 5903 5902 5901 5901 5900 5899 5898 5898 5896 5895 5894 5892 5890 5888 5887 5885 5883 5881 5880 5878 5876 5875 5873 5871 5869 5866
5881 5883 5885 5888 5891 5893 5896 5898 5900 5901 5901 5902 5902 5902 5902 5902 5901 5901 5900 5899 5898 5898 5897 5895 5894 5893 5892 5890 5889 5887 5886 5884 5883 5881 5879 5877 5875 5873 5871 5869 5867 5865 5862
5877 5879 5881 5884 5887 5889 5892 5894 5896 5898 5898 5899 5899 5899 5899 5899 5899 5898 5897 5896 5896 5895 5894 5893 5892 5891 5890 5888 5886 5884 5882 5880 5878 5877 5875 5874 5871 5869 5867 5864 5862 5860 5858
5872 5875 5877 5880 5883 5885 5887 5889 5892 5894 5895 5895 5896 5896 5896 5896 5896 5895 5894 5893 5892 5892 5891 5890 5889 5887 5886 5884 5882 5880 5878 5876 5874 5872 5870 5869 5866 5863 5862 5859 5856 5854 5852
5866 5871 5873 5876 5879 5882 5883 5885 5887 5889 5891 5892 5892 5891 5892 5892 5891 5891 5890 5889 5888 5888 5887 5886 5885 5883 5882 5880 5878 5876 5874 5872 5870 5867 5866 5863 5861 5859 5857 5854 5851 5849 5846
5859 5866 5871 5872 5874 5877 5879 5881 5883 5884 5886 5887 5887 5888 5888 5887 5887 5887 5887 5886 5885 5885 5883 5881 5880 5879 5877 5876 5874 5872 5870 5867 5864 5862 5860 5858 5855 5853 5850 5848 5846 5843 5841
5856 5860 5864 5867 5869 5872 5875 5877 5879 5880 5881 5882 5883 5883 5883 5883 5883 5883 5882 5882 5882 5881 5879 5878 5876 5875 5872 5871 5868 5866 5864 5862 5859 5856 5854 5851 5848 5845 5843 5841 5839 5836 5834
5850 5854 5857 5860 5864 5867 5870 5872 5874 5875 5876 5877 5878 5879 5879 5879 5878 5879 5878 5877 5877 5876 5875 5873 5871 5870 5868 5865 5862 5860 5858 5856 5853 5850 5847 5844 5841 5838 5836 5834 5832 5830 5827
5842 5847 5851 5855 5858 5861 5864 5866 5868 5870 5871 5872 5873 5873 5874 5874 5874 5874 5874 5872 5871 5870 5869 5867 5866 5864 5862 5860 5856 5854 5852 5849 5846 5843 5840 5837 5834 5831 5829 5827 5824 5822 5819
5838 5842 5846 5850 5851 5855 5858 5860 5863 5865 5866 5866 5867 5868 5868 5869 5869 5868 5867 5866 5865 5865 5863 5861 5860 5859 5856 5853 5850 5847 5845 5842 5839 5835 5832 5828 5825 5822 5820 5817 5815 5812 5810
5830 5834 5840 5843 5846 5849 5852 5854 5857 5860 5860 5860 5861 5862 5862 5862 5862 5862 5861 5859 5859 5858 5857 5856 5854 5852 5849 5846 5844 5841 5838 5835 5832 5828 5824 5819 5816 5814 5810 5808 5805 5803 5800
5826 5828 5831 5837 5840 5842 5845 5848 5850 5852 5853 5853 5854 5855 5855 5855 5855 5855 5855 5853 5852 5852 5850 5849 5847 5845 5843 5840 5837 5834 5831 5827 5824 5820 5817 5813 5809 5805 5802 5799 5796 5793 5790
5819 5823 5825 5830 5833 5836 5838 5841 5842 5843 5844 5846 5847 5848 5848 5848 5849 5849 5848 5847 5846 5845 5843 5841 5839 5837 5834 5832 5831 5827 5824 5820 5815 5811 5808 5804 5801 5797 5793 5790 5787 5784 5781
5811 5815 5818 5822 5826 5829 5831 5833 5834 5835 5837 5838 5839 5840 5841 5841 5841 5841 5841 5840 5839 5837 5835 5833 5830 5828 5827 5823 5821 5818 5817 5813 5806 5802 5798 5795 5791 5788 5784 5781 5777 5774 5771
5803 5806 5810 5813 5817 5820 5823 5825 5826 5828 5829 5830 5832 5833 5834 5834 5834 5834 5833 5832 5830 5829 5827 5824 5821 5819 5818 5816 5811 5807 5806 5804 5800 5795 5790 5786 5782 5778 5775 5771 5767 5764 5760
5794 5797 5801 5804 5808 5812 5815 5817 5819 5821 5822 5824 5825 5826 5826 5827 5826 5826 5825 5824 5822 5820 5818 5815 5813 5811 5809 5806 5802 5798 5794 5792 5789 5787 5782 5777 5773 5770 5766 5762 5758 5754 5749
5785 5789 5792 5795 5798 5801 5804 5808 5810 5812 5814 5816 5817 5817 5817 5817 5817 5817 5816 5815 5813 5811 5808 5806 5803 5801 5798 5795 5792 5789 5785 5781 5778 5775 5772 5769 5765 5760 5756 5752 5748 5743 5739
5775 5779 5783 5786 5788 5791 5794 5797 5800 5803 5804 5805 5807 5807 5807 5807 5806 5807 5806 5805 5803 5800 5798 5796 5794 5791 5788 5785 5782 5779 5776 5772 5768 5764 5762 5758 5755 5751 5745 5741 5736 5732 5728